GW2155 Weather Reports


time (UTC)temp
C
wind
direction
speed
KPH
gust
KPH
rain 1hr
cm
rain 24hr
cm
rain mn
cm
humidity
%
barometer
mb
20260906214824 32 151 3.2 3.2 0.00 0.00 0.00 37 1000.9
20260906214319 32 161 0.0 1.6 0.00 0.00 0.00 37 1001.2
20260906213818 31 262 4.8 4.8 0.00 0.00 0.00 37 1001.0
20260906213313 30 167 3.2 3.2 0.00 0.00 0.00 40 1001.2
20260906212810 30 137 0.0 0.0 0.00 0.00 0.00 41 1001.6
20260906212306 30 265 0.0 1.6 0.00 0.00 0.00 40 1001.6
20260906211806 30 278 1.6 1.6 0.00 0.00 0.00 41 1001.7
20260906211301 30 141 4.8 4.8 0.00 0.00 0.00 41 1001.3
20260906210756 30 171 3.2 3.2 0.00 0.00 0.00 41 1001.6
20260906210255 30 227 3.2 3.2 0.00 0.00 0.00 40 1001.8
20260906205750 30 217 1.6 1.6 0.00 0.00 0.00 40 1001.9
20260906205247 30 158 0.0 0.0 0.00 0.00 0.00 41 1001.8
20260906204742 31 189 1.6 3.2 0.00 0.00 0.00 38 1001.8
20260906204241 31 173 0.0 0.0 0.00 0.00 0.00 36 1001.9
20260906203741 31 99 0.0 1.6 0.00 0.00 0.00 35 1002.0
20260906203236 31 211 1.6 1.6 0.00 0.00 0.00 36 1002.0
20260906202733 31 196 3.2 4.8 0.00 0.00 0.00 36 1002.0
20260906202232 31 166 0.0 1.6 0.00 0.00 0.00 37 1002.1
20260906201727 31 154 0.0 0.0 0.00 0.00 0.00 36 1002.5
20260906201226 31 282 3.2 4.8 0.00 0.00 0.00 38 1002.2
20260906200722 31 166 1.6 3.2 0.00 0.00 0.00 35 1002.4
20260906200218 30 104 4.8 6.4 0.00 0.00 0.00 36 1002.2
20260906195714 30 302 3.2 3.2 0.00 0.00 0.00 35 1002.4
20260906195210 30 145 1.6 1.6 0.00 0.00 0.00 37 1002.4
20260906194706 31 103 1.6 1.6 0.00 0.00 0.00 39 1002.6
20260906194201 30 190 3.2 3.2 0.00 0.00 0.00 40 1002.5
20260906193656 30 153 0.0 0.0 0.00 0.00 0.00 43 1002.6
20260906193150 30 149 0.0 1.6 0.00 0.00 0.00 44 1002.7
20260906192647 30 280 8.0 11.3 0.00 0.00 0.00 43 1002.7
20260906192146 29 121 1.6 3.2 0.00 0.00 0.00 45 1002.7
20260906191641 29 229 9.7 11.3 0.00 0.00 0.00 45 1002.8
20260906191140 29 282 8.0 9.7 0.00 0.00 0.00 46 1002.8
20260906190634 29 197 3.2 3.2 0.00 0.00 0.00 47 1003.1
20260906190129 29 253 4.8 4.8 0.00 0.00 0.00 48 1003.1
20260906185628 28 265 6.4 6.4 0.00 0.00 0.00 50 1003.2
20260906185128 28 274 6.4 6.4 0.00 0.00 0.00 50 1003.4
20260906184622 27 53 0.0 1.6 0.00 0.00 0.00 51 1003.5
20260906184118 28 270 3.2 4.8 0.00 0.00 0.00 52 1003.6
20260906183614 28 129 3.2 3.2 0.00 0.00 0.00 51 1003.5
20260906183109 28 231 3.2 3.2 0.00 0.00 0.00 52 1003.6
20260906182604 28 150 0.0 1.6 0.00 0.00 0.00 53 1004.1
20260906182101 27 261 0.0 1.6 0.00 0.00 0.00 53 1003.9
20260906181555 27 256 4.8 4.8 0.00 0.00 0.00 53 1003.9
20260906181051 27 165 1.6 3.2 0.00 0.00 0.00 54 1004.1
20260906180551 27 167 0.0 0.0 0.00 0.00 0.00 55 1004.2
20260906180050 26 270 1.6 3.2 0.00 0.00 0.00 56 1004.3
20260906175549 26 155 0.0 1.6 0.00 0.00 0.00 57 1004.6
20260906175044 27 165 0.0 1.6 0.00 0.00 0.00 56 1004.7
20260906174542 26 126 1.6 1.6 0.00 0.00 0.00 55 1004.9
20260906174038 26 197 1.6 1.6 0.00 0.00 0.00 58 1004.8
20260906173532 25 142 3.2 3.2 0.00 0.00 0.00 59 1005.0
20260906173028 25 93 4.8 4.8 0.00 0.00 0.00 61 1005.0
20260906172523 26 121 4.8 4.8 0.00 0.00 0.00 61 1005.0
20260906172018 26 270 3.2 3.2 0.00 0.00 0.00 59 1005.1
20260906171513 25 173 0.0 1.6 0.00 0.00 0.00 61 1005.1
20260906171008 25 263 4.8 4.8 0.00 0.00 0.00 61 1005.3
20260906170504 25 283 6.4 9.7 0.00 0.00 0.00 61 1005.5
20260906170003 25 145 0.0 1.6 0.00 0.00 0.00 62 1005.4
20260906165500 23 176 1.6 1.6 0.00 0.00 0.00 65 1005.7
20260906164955 24 137 6.4 6.4 0.00 0.00 0.00 65 1005.6
20260906164454 24 105 1.6 1.6 0.00 0.00 0.00 63 1005.5
20260906163951 23 149 0.0 1.6 0.00 0.00 0.00 66 1005.7
20260906163446 23 164 3.2 4.8 0.00 0.00 0.00 65 1005.7
20260906162944 23 173 1.6 3.2 0.00 0.00 0.00 65 1005.6
20260906162442 23 188 3.2 3.2 0.00 0.00 0.00 67 1005.7
20260906161937 22 188 3.2 4.8 0.00 0.00 0.00 69 1005.5
20260906161432 22 138 8.0 9.7 0.00 0.00 0.00 69 1005.5
20260906160931 22 178 0.0 1.6 0.00 0.00 0.00 70 1005.4
20260906160424 22 138 3.2 4.8 0.00 0.00 0.00 71 1005.6
20260906155923 21 140 0.0 0.0 0.00 0.00 0.00 72 1005.6
20260906155416 22 128 3.2 4.8 0.00 0.00 0.00 72 1005.6
20260906154913 22 139 4.8 6.4 0.00 0.00 0.00 69 1005.5
20260906154407 21 182 0.0 1.6 0.00 0.00 0.00 71 1005.8
20260906153906 21 154 4.8 4.8 0.00 0.00 0.00 74 1005.8
20260906153404 21 107 4.8 6.4 0.00 0.00 0.00 74 1005.7
20260906152900 21 72 3.2 4.8 0.00 0.00 0.00 75 1005.8
20260906152355 21 184 3.2 4.8 0.00 0.00 0.00 75 1006.1
20260906151854 21 132 6.4 6.4 0.00 0.00 0.00 76 1005.7
20260906151350 20 135 0.0 1.6 0.00 0.00 0.00 78 1005.7
20260906150846 20 215 3.2 3.2 0.00 0.00 0.00 77 1006.0
20260906150341 20 152 0.0 1.6 0.00 0.00 0.00 78 1006.1
20260906145840 19 149 3.2 3.2 0.00 0.00 0.00 81 1006.1
20260906145339 20 128 3.2 4.8 0.00 0.00 0.00 81 1006.0
20260906144834 20 175 6.4 6.4 0.00 0.00 0.00 80 1006.0
20260906144329 20 158 3.2 6.4 0.00 0.00 0.00 80 1006.0
20260906143829 20 190 0.0 1.6 0.00 0.00 0.00 80 1006.1
20260906143325 19 183 3.2 3.2 0.00 0.00 0.00 81 1005.8
20260906142820 19 171 3.2 3.2 0.00 0.00 0.00 82 1005.8
20260906142315 19 130 6.4 6.4 0.00 0.00 0.00 82 1006.1
20260906141815 18 168 1.6 1.6 0.00 0.00 0.00 83 1005.8
20260906141310 18 127 0.0 1.6 0.00 0.00 0.00 84 1005.8
20260906140808 18 155 4.8 6.4 0.00 0.00 0.00 85 1005.8
20260906140303 17 156 3.2 3.2 0.00 0.00 0.00 86 1005.7
20260906135801 17 146 3.2 4.8 0.00 0.00 0.00 86 1005.7
20260906135256 17 139 6.4 6.4 0.00 0.00 0.00 86 1006.0
20260906134751 17 147 1.6 3.2 0.00 0.00 0.00 87 1005.8
20260906134246 17 151 1.6 1.6 0.00 0.00 0.00 87 1006.0
20260906133742 17 142 3.2 3.2 0.00 0.00 0.00 88 1005.6
20260906133238 17 134 3.2 4.8 0.00 0.00 0.00 88 1005.7
20260906132733 17 145 3.2 3.2 0.00 0.00 0.00 88 1005.5
20260906132228 17 154 4.8 6.4 0.00 0.00 0.00 88 1005.8
20260906131724 17 139 0.0 1.6 0.00 0.00 0.00 88 1005.7
20260906131218 17 131 1.6 3.2 0.00 0.00 0.00 88 1005.6
20260906130714 17 146 3.2 3.2 0.00 0.00 0.00 88 1005.8
20260906130209 16 132 3.2 3.2 0.00 0.00 0.00 88 1005.6
20260906125707 16 136 3.2 4.8 0.00 0.00 0.00 88 1005.8
20260906125206 16 143 0.0 1.6 0.00 0.00 0.00 88 1005.5
20260906124701 16 120 3.2 4.8 0.00 0.00 0.00 88 1005.5
20260906124156 16 149 3.2 3.2 0.00 0.00 0.00 87 1005.4
20260906123655 16 98 1.6 3.2 0.00 0.00 0.00 87 1005.4
20260906123151 16 142 1.6 3.2 0.00 0.00 0.00 87 1005.4
20260906122650 16 152 0.0 1.6 0.00 0.00 0.00 86 1005.3
20260906122145 16 138 0.0 0.0 0.00 0.00 0.00 86 1005.0
20260906121642 16 146 0.0 0.0 0.00 0.00 0.00 85 1005.3
20260906121138 16 147 0.0 1.6 0.00 0.00 0.00 85 1005.1
20260906120633 16 133 1.6 1.6 0.00 0.00 0.00 86 1005.3
20260906120130 16 152 0.0 0.0 0.00 0.00 0.00 86 1005.4
20260906115625 16 151 0.0 0.0 0.00 0.00 0.00 85 1005.1
20260906115120 17 151 0.0 0.0 0.00 0.00 0.00 85 1005.3
20260906114614 17 126 0.0 1.6 0.00 0.00 0.00 85 1005.4
20260906114109 17 142 0.0 0.0 0.00 0.00 0.00 85 1005.3
20260906113609 17 144 3.2 4.8 0.00 0.00 0.00 85 1005.5
20260906113103 17 137 4.8 4.8 0.00 0.00 0.00 83 1005.3
20260906112557 17 134 1.6 1.6 0.00 0.00 0.00 82 1004.9
20260906112055 17 147 3.2 3.2 0.00 0.00 0.00 82 1005.4
20260906111554 17 115 0.0 1.6 0.00 0.00 0.00 83 1005.4
20260906111049 17 112 1.6 1.6 0.00 0.00 0.00 85 1005.3
20260906110549 17 118 1.6 1.6 0.00 0.00 0.00 86 1005.3
20260906110048 17 142 0.0 0.0 0.00 0.00 0.00 86 1005.1
20260906105543 17 143 0.0 0.0 0.00 0.00 0.00 85 1005.0
20260906105039 17 139 0.0 0.0 0.00 0.00 0.00 86 1004.9
20260906104537 17 143 0.0 0.0 0.00 0.00 0.00 86 1004.9
20260906104032 17 124 0.0 0.0 0.00 0.00 0.00 86 1005.0
20260906103530 17 138 0.0 0.0 0.00 0.00 0.00 85 1005.0
20260906103026 17 134 0.0 0.0 0.00 0.00 0.00 84 1005.0
20260906102526 17 130 3.2 3.2 0.00 0.00 0.00 84 1004.9
20260906102021 17 135 0.0 0.0 0.00 0.00 0.00 83 1005.0
20260906101515 17 138 3.2 3.2 0.00 0.00 0.00 83 1005.1
20260906101010 17 142 1.6 3.2 0.00 0.00 0.00 82 1005.3
20260906100506 18 148 0.0 0.0 0.00 0.00 0.00 82 1005.1
20260906100000 18 144 0.0 0.0 0.00 0.00 0.00 82 1005.4
20260906095455 18 146 1.6 3.2 0.00 0.00 0.00 82 1005.4
20260906094950 18 159 0.0 0.0 0.00 0.00 0.00 81 1005.1
20260906094449 18 156 0.0 0.0 0.00 0.00 0.00 80 1005.3
20260906093946 18 185 3.2 4.8 0.00 0.00 0.00 80 1005.0
20260906093442 18 155 3.2 3.2 0.00 0.00 0.00 79 1004.8
20260906092941 18 133 1.6 1.6 0.00 0.00 0.00 78 1005.1
20260906092436 18 155 0.0 1.6 0.00 0.00 0.00 77 1004.9
20260906091931 18 172 3.2 4.8 0.00 0.00 0.00 75 1004.8
20260906091427 18 156 3.2 3.2 0.00 0.00 0.00 74 1004.9
20260906090923 18 144 4.8 4.8 0.00 0.00 0.00 73 1004.6
20260906090418 18 131 6.4 9.7 0.00 0.00 0.00 73 1004.3
20260906085918 18 148 3.2 3.2 0.00 0.00 0.00 73 1003.9
20260906085412 19 136 6.4 6.4 0.00 0.00 0.00 73 1004.2
20260906084911 19 118 6.4 6.4 0.00 0.00 0.00 73 1004.3
20260906084407 19 131 8.0 11.3 0.00 0.00 0.00 72 1004.2
20260906083905 20 156 8.0 11.3 0.00 0.00 0.00 72 1004.1
20260906083401 20 136 3.2 4.8 0.00 0.00 0.00 72 1004.3
20260906082900 20 161 4.8 9.7 0.00 0.00 0.00 72 1004.2
20260906082355 20 149 4.8 6.4 0.00 0.00 0.00 72 1004.4
20260906081852 20 146 6.4 11.3 0.00 0.00 0.00 72 1004.3
20260906081347 20 142 4.8 6.4 0.00 0.00 0.00 72 1004.4
20260906080843 20 151 3.2 4.8 0.00 0.00 0.00 71 1004.4
20260906080339 20 162 6.4 6.4 0.00 0.00 0.00 70 1004.4
20260906075838 20 140 6.4 9.7 0.00 0.00 0.00 70 1004.3
20260906075333 20 147 9.7 11.3 0.00 0.00 0.00 69 1004.4
20260906074828 20 143 9.7 11.3 0.00 0.00 0.00 68 1004.6
20260906074328 20 107 8.0 12.9 0.00 0.00 0.00 65 1004.6
20260906073827 20 118 14.5 16.1 0.00 0.00 0.00 64 1004.4
20260906073322 20 144 6.4 9.7 0.00 0.00 0.00 63 1004.3
20260906072819 20 133 8.0 11.3 0.00 0.00 0.00 63 1004.4
20260906072314 20 85 6.4 9.7 0.00 0.00 0.00 62 1004.1
20260906071810 20 104 9.7 11.3 0.00 0.00 0.00 60 1003.9
20260906071304 20 142 8.0 11.3 0.00 0.00 0.00 58 1004.2
20260906070800 21 135 11.3 14.5 0.00 0.00 0.00 55 1004.2
20260906070256 21 136 9.7 11.3 0.00 0.00 0.00 52 1004.2
20260906065750 21 128 3.2 3.2 0.00 0.00 0.00 52 1004.2
20260906065245 21 118 1.6 1.6 0.00 0.00 0.00 51 1004.6
20260906064741 22 134 6.4 6.4 0.00 0.00 0.00 49 1004.4
20260906064236 22 150 3.2 3.2 0.00 0.00 0.00 50 1004.6
20260906063731 22 130 3.2 4.8 0.00 0.00 0.00 50 1004.2
20260906063227 22 142 1.6 3.2 0.00 0.00 0.00 50 1004.1
20260906062722 22 138 4.8 9.7 0.00 0.00 0.00 51 1004.1
20260906062221 21 145 1.6 3.2 0.00 0.00 0.00 52 1004.1
20260906061717 21 140 0.0 1.6 0.00 0.00 0.00 54 1004.1
20260906061213 22 150 1.6 3.2 0.00 0.00 0.00 53 1004.3
20260906060709 21 113 3.2 3.2 0.00 0.00 0.00 55 1004.3
20260906060206 21 136 0.0 0.0 0.00 0.00 0.00 55 1004.3
20260906055701 21 138 0.0 0.0 0.00 0.00 0.00 54 1004.6
20260906055156 21 148 0.0 0.0 0.00 0.00 0.00 55 1004.6
20260906054651 22 154 0.0 0.0 0.00 0.00 0.00 54 1004.7
20260906054146 22 156 0.0 0.0 0.00 0.00 0.00 54 1004.4
20260906053643 22 150 0.0 0.0 0.00 0.00 0.00 53 1004.4
20260906053138 22 261 1.6 1.6 0.00 0.00 0.00 51 1004.7
20260906052634 22 179 1.6 1.6 0.00 0.00 0.00 49 1004.6
20260906052130 22 156 0.0 0.0 0.00 0.00 0.00 49 1004.7
20260906051626 22 156 1.6 1.6 0.00 0.00 0.00 49 1004.3
20260906051126 22 127 0.0 1.6 0.00 0.00 0.00 49 1004.2
20260906050621 22 144 0.0 0.0 0.00 0.00 0.00 50 1004.3
20260906050116 22 165 0.0 0.0 0.00 0.00 0.00 49 1004.4
20260906045614 22 153 0.0 0.0 0.00 0.00 0.00 49 1004.4
20260906045110 22 166 0.0 0.0 0.00 0.00 0.00 52 1004.4
20260906044606 22 140 0.0 0.0 0.00 0.00 0.00 49 1004.1
20260906044101 22 145 0.0 0.0 0.00 0.00 0.00 48 1003.6
20260906043557 22 141 3.2 4.8 0.00 0.00 0.00 47 1003.6
20260906043052 22 148 3.2 3.2 0.00 0.00 0.00 47 1003.4
20260906042551 22 156 1.6 1.6 0.00 0.00 0.00 48 1003.4
20260906042046 22 158 0.0 0.0 0.00 0.00 0.00 48 1003.5
20260906041543 22 145 0.0 0.0 0.00 0.00 0.00 48 1003.5
20260906041037 22 164 0.0 1.6 0.00 0.00 0.00 47 1003.3
20260906040532 23 156 1.6 3.2 0.00 0.00 0.00 47 1003.2
20260906040028 22 168 4.8 4.8 0.00 0.00 0.00 46 1003.3
20260906035523 23 207 1.6 1.6 0.00 0.00 0.00 47 1003.4
20260906035019 23 128 0.0 0.0 0.00 0.00 0.00 45 1003.3
20260906034518 23 166 0.0 0.0 0.00 0.00 0.00 44 1003.3
20260906034013 23 153 1.6 1.6 0.00 0.00 0.00 43 1003.1
20260906033508 23 136 1.6 3.2 0.00 0.00 0.00 43 1003.1
20260906033004 24 146 1.6 1.6 0.00 0.00 0.00 44 1003.1
20260906032500 24 155 0.0 1.6 0.00 0.00 0.00 42 1002.9
20260906031954 24 141 3.2 4.8 0.00 0.00 0.00 42 1002.8
20260906031450 25 164 8.0 11.3 0.00 0.00 0.00 41 1002.8
20260906030945 25 134 3.2 4.8 0.00 0.00 0.00 41 1002.7
20260906030440 25 119 4.8 4.8 0.00 0.00 0.00 40 1002.8
20260906025934 25 148 3.2 3.2 0.00 0.00 0.00 39 1002.5
20260906025428 26 168 1.6 4.8 0.00 0.00 0.00 37 1002.7
20260906024927 25 135 6.4 6.4 0.00 0.00 0.00 37 1002.5
20260906024426 25 154 3.2 4.8 0.00 0.00 0.00 38 1002.4
20260906023922 26 183 4.8 4.8 0.00 0.00 0.00 38 1002.6
20260906023418 26 126 4.8 6.4 0.00 0.00 0.00 37 1002.6
20260906022918 26 118 1.6 1.6 0.00 0.00 0.00 37 1002.5
20260906022413 26 135 8.0 9.7 0.00 0.00 0.00 37 1002.4
20260906021909 26 147 4.8 6.4 0.00 0.00 0.00 38 1002.4
20260906021408 26 155 6.4 6.4 0.00 0.00 0.00 36 1001.8
20260906020903 26 86 4.8 4.8 0.00 0.00 0.00 36 1002.1
20260906020357 26 109 4.8 6.4 0.00 0.00 0.00 36 1002.1
20260906015851 27 167 4.8 4.8 0.00 0.00 0.00 36 1002.1
20260906015345 27 132 1.6 3.2 0.00 0.00 0.00 36 1001.8
20260906014844 27 146 6.4 9.7 0.00 0.00 0.00 35 1001.8
20260906014339 27 154 4.8 11.3 0.00 0.00 0.00 34 1001.9
20260906013835 28 118 4.8 9.7 0.00 0.00 0.00 34 1001.9
20260906013331 28 140 8.0 12.9 0.00 0.00 0.00 33 1001.7
20260906012826 28 137 9.7 12.9 0.00 0.00 0.00 32 1001.6
20260906012321 28 117 3.2 6.4 0.00 0.00 0.00 32 1001.8
20260906011815 28 124 11.3 14.5 0.00 0.00 0.00 32 1001.6
20260906011310 29 164 6.4 11.3 0.00 0.00 0.00 32 1001.8
20260906010806 29 141 8.0 12.9 0.00 0.00 0.00 31 1001.9
20260906010302 30 107 9.7 14.5 0.00 0.00 0.00 30 1001.6
20260906005757 30 155 6.4 9.7 0.00 0.00 0.00 30 1001.8
20260906005256 30 119 6.4 11.3 0.00 0.00 0.00 29 1001.9
20260906004755 30 110 6.4 12.9 0.00 0.00 0.00 29 1001.7
20260906004250 31 106 9.7 16.1 0.00 0.00 0.00 28 1001.8
20260906003750 31 119 8.0 12.9 0.00 0.00 0.00 27 1001.6
20260906003245 31 109 6.4 9.7 0.00 0.00 0.00 27 1001.9
20260906002740 31 157 4.8 6.4 0.00 0.00 0.00 26 1001.6
20260906002235 32 164 4.8 4.8 0.00 0.00 0.00 26 1001.6
20260906001730 32 148 3.2 4.8 0.00 0.00 0.00 26 1001.7
20260906001225 32 115 3.2 4.8 0.00 0.00 0.00 26 1001.6
20260906000721 32 128 4.8 4.8 0.00 0.00 0.00 26 1001.4
20260906000216 32 81 3.2 4.8 0.00 0.00 0.00 26 1001.4
20260905235715 32 142 1.6 1.6 0.00 0.00 0.00 25 1001.3
20260905235210 32 116 1.6 3.2 0.00 0.00 0.00 24 1001.4
20260905234706 32 135 1.6 3.2 0.00 0.00 0.00 24 1001.3
20260905234201 32 121 8.0 11.3 0.00 0.00 0.00 24 1001.4
20260905233656 32 122 3.2 4.8 0.00 0.00 0.00 24 1001.3
20260905233155 33 138 1.6 3.2 0.00 0.00 0.00 24 1001.6
20260905232651 33 141 1.6 1.6 0.00 0.00 0.00 24 1001.2
20260905232146 34 145 0.0 1.6 0.00 0.00 0.00 23 1001.2
20260905231641 35 98 4.8 4.8 0.00 0.00 0.00 22 1001.3
20260905231137 35 152 0.0 0.0 0.00 0.00 0.00 22 1001.3
20260905230633 35 131 0.0 0.0 0.00 0.00 0.00 21 1001.2
20260905230131 35 160 1.6 1.6 0.00 0.00 0.00 21 1001.4
20260905225631 35 137 4.8 4.8 0.00 0.00 0.00 22 1001.3
20260905225126 35 156 3.2 4.8 0.00 0.00 0.00 22 1001.1
20260905224625 35 142 0.0 0.0 0.00 0.00 0.00 21 1001.3
20260905224125 35 267 1.6 3.2 0.00 0.00 0.00 22 1001.0
20260905223622 35 291 6.4 11.3 0.00 0.00 0.00 22 1001.2
20260905223118 35 132 1.6 1.6 0.00 0.00 0.00 21 1001.2
20260905222613 35 138 0.0 0.0 0.00 0.00 0.00 22 1001.3
20260905222108 34 112 6.4 6.4 0.00 0.00 0.00 24 1001.2
20260905221604 34 156 3.2 4.8 0.00 0.00 0.00 23 1001.2
20260905221100 35 171 3.2 9.7 0.00 0.00 0.00 23 1001.1
20260905220555 35 134 0.0 0.0 0.00 0.00 0.00 21 1001.3
20260905220051 35 117 1.6 3.2 0.00 0.00 0.00 22 1001.6
20260905215550 35 214 3.2 3.2 0.00 0.00 0.00 21 1001.6